GEFSGL_500_meanwind_186.txt.gz
Wind_Speed
20 19 19 18 17 18 18 19 19 19 19 19 20 20 21 22 22 23 24 24 25 25 24 25 26 26 27 27 28 28 28 29 29 30 31 32 34 34 34 34 35 36 36
18 17 17 17 18 17 17 18 17 17 18 19 20 21 22 23 23 23 23 24 24 24 24 24 24 25 25 26 26 27 27 27 27 27 28 29 30 32 33 33 34 34 34
16 15 16 17 18 17 17 16 16 16 17 19 20 20 21 22 22 22 22 23 23 23 23 24 24 24 24 25 25 26 25 26 26 26 26 27 28 30 31 32 32 32 33
14 14 15 17 18 18 17 15 15 15 17 19 20 20 20 21 21 21 22 23 23 23 23 24 24 23 23 23 24 24 24 24 24 25 25 26 27 28 29 30 31 31 31
14 14 15 16 17 17 16 15 15 16 17 18 19 19 19 20 21 21 22 22 22 23 23 23 23 23 24 24 24 24 23 24 25 25 26 26 26 28 28 28 29 30 31
13 14 15 15 15 16 16 16 16 16 17 18 18 19 20 20 21 21 21 22 23 23 23 23 23 23 23 23 23 23 24 24 25 25 25 26 27 27 27 27 28 29 30
14 14 14 14 15 16 16 15 15 16 17 17 17 19 20 21 21 21 22 22 22 23 23 22 22 22 23 23 23 23 24 24 24 25 25 25 26 26 26 27 27 28 29
14 14 14 14 15 15 14 14 15 16 17 17 17 18 20 20 21 22 22 23 23 23 23 23 22 23 23 23 23 23 23 23 23 24 24 24 25 25 25 26 27 28 28
14 14 15 14 15 15 14 14 15 16 17 17 18 19 20 22 22 23 23 23 24 24 24 24 23 23 24 24 24 24 23 23 23 23 24 24 25 25 25 26 26 26 27
14 14 14 14 14 15 15 15 16 17 18 18 19 20 21 23 24 24 24 25 25 25 25 24 24 25 25 25 25 24 24 23 23 22 22 23 24 24 25 25 25 25 25
14 14 14 15 15 15 15 16 17 18 19 19 20 22 23 25 26 26 26 26 25 25 25 25 25 26 26 26 26 25 24 23 22 22 22 22 23 23 23 24 24 25 25
14 14 14 14 15 15 16 17 18 19 19 20 21 22 24 25 26 26 26 26 25 25 25 26 27 27 27 27 26 26 25 24 23 22 22 23 23 24 24 24 24 24 24
14 14 14 15 16 16 17 18 19 19 20 21 22 23 24 25 26 26 26 25 25 26 27 27 28 28 27 27 26 26 25 23 22 22 22 23 23 23 23 23 22 22 23
13 14 14 15 16 17 18 19 20 20 21 22 23 24 24 25 25 26 26 26 26 27 27 27 27 27 26 26 26 25 24 23 22 22 22 22 22 21 20 21 22 22 22
13 14 15 16 17 18 19 20 21 21 21 22 23 24 24 24 25 26 26 26 26 27 27 27 27 26 25 25 25 24 24 23 21 21 20 20 20 20 20 21 21 21 21
14 14 16 16 18 19 19 20 21 21 21 22 23 23 24 25 26 26 27 27 28 28 28 28 28 27 26 25 25 24 23 23 22 21 20 20 20 21 20 20 19 19 20
14 15 16 17 18 19 20 20 20 21 21 22 22 23 24 25 26 27 28 28 28 28 29 29 28 27 27 26 25 24 23 23 22 21 21 21 21 20 19 19 19 18 18
14 15 16 17 18 19 20 20 21 21 22 22 22 23 25 25 26 28 29 29 28 29 30 30 29 28 27 27 26 25 24 23 23 22 22 21 21 20 20 19 19 18 18
14 15 16 17 18 18 19 20 21 22 22 23 22 23 25 26 27 28 29 29 29 30 31 31 30 29 27 27 26 25 24 24 24 23 23 22 21 20 20 19 18 18 18
14 15 16 16 17 18 19 21 22 22 23 23 22 23 25 26 27 28 29 29 30 30 31 32 31 29 28 26 26 26 25 25 24 24 24 23 22 20 19 18 18 17 17
14 15 15 16 17 18 19 21 22 22 23 23 23 24 25 26 27 28 29 30 31 31 32 32 32 30 29 27 26 26 26 25 25 24 24 23 22 20 19 18 18 17 16
13 13 14 15 16 18 20 21 22 22 22 22 23 24 25 26 27 28 29 31 32 32 32 32 32 31 30 28 27 27 26 26 25 25 24 24 23 21 20 18 17 16 15
12 13 14 15 16 18 20 21 22 22 21 22 23 24 26 27 28 29 30 31 32 32 32 32 32 32 31 29 28 27 27 26 26 26 25 24 22 21 20 19 18 17 16
11 12 13 15 16 18 19 21 21 21 21 22 23 24 26 28 28 28 29 31 31 32 33 33 32 33 33 32 30 28 27 26 26 26 26 25 23 22 21 20 19 18 18
11 12 13 14 15 16 18 19 20 21 22 22 24 25 26 27 28 28 29 30 31 32 33 33 33 33 33 33 32 30 29 28 27 27 26 25 24 23 21 21 20 19 19
11 11 12 13 14 15 17 18 20 21 22 23 24 25 26 27 28 28 29 31 31 32 33 34 34 34 34 33 32 32 31 30 28 28 26 25 24 23 22 21 21 19 18

GEFSGL_500_meanwind_192.txt.gz
Wind_Speed
18 17 17 16 16 17 17 17 16 16 17 17 17 18 18 19 20 20 21 22 23 23 24 24 24 24 25 26 26 27 28 29 30 31 32 33 34 35 36 35 35 36 37
16 16 16 16 16 15 16 16 16 16 16 16 16 17 18 19 20 20 20 21 22 22 23 23 23 24 25 25 26 28 28 28 29 29 30 31 32 32 33 35 36 36 37
15 15 14 14 14 14 15 15 15 15 16 16 17 17 18 19 19 20 21 22 23 23 22 22 23 24 25 26 26 27 26 26 27 28 29 30 30 31 32 32 33 34 36
14 14 13 13 13 13 14 15 15 16 16 16 16 17 17 18 19 20 21 22 23 22 22 22 23 24 25 26 26 25 25 25 26 27 27 27 28 29 30 31 31 32 33
13 13 12 12 12 13 14 14 15 16 16 16 16 16 17 18 19 20 21 22 23 23 22 22 23 23 24 25 26 26 26 25 25 25 25 25 25 27 28 29 29 30 31
13 12 12 12 13 13 14 14 15 15 16 16 17 17 18 19 20 21 21 21 22 22 22 22 22 22 24 24 25 25 25 25 25 24 25 25 25 25 25 27 28 29 30
12 12 12 13 13 13 13 14 15 15 16 17 17 18 19 20 21 21 21 21 21 21 21 21 21 22 23 24 25 25 25 25 25 25 25 25 25 25 25 26 27 28 28
12 12 12 12 13 14 15 15 15 16 17 17 18 19 19 20 20 21 21 21 21 21 21 22 22 23 24 24 25 25 25 25 25 24 24 25 25 25 25 25 25 26 27
12 13 12 12 13 14 15 15 15 16 17 17 19 19 19 19 20 21 22 22 22 21 21 22 22 23 24 24 25 25 25 25 25 25 25 24 24 24 24 24 24 24 25
12 12 12 12 13 14 15 15 16 16 17 18 19 19 19 20 21 22 22 23 22 22 22 23 23 24 24 25 25 25 24 24 24 24 24 24 24 24 24 25 25 26 26
11 11 11 12 13 14 15 16 16 17 17 18 19 19 20 21 22 22 23 23 23 23 23 24 24 24 25 25 24 25 25 24 23 23 23 22 22 22 23 23 23 24 25
11 11 12 13 14 14 15 16 17 18 18 18 19 19 20 22 23 23 24 24 24 23 23 23 24 24 24 24 24 24 24 23 23 22 21 20 20 20 21 22 22 22 22
12 12 13 14 15 15 16 17 18 18 18 18 19 19 21 22 23 24 24 23 23 23 23 23 23 23 24 24 24 23 23 23 22 21 20 19 19 19 20 20 20 21 21
12 12 13 14 14 15 16 17 17 18 18 18 19 20 21 22 23 23 23 23 23 24 24 24 24 23 24 24 24 24 23 21 21 20 19 18 18 18 19 19 19 20 21
12 12 13 13 14 15 16 16 17 18 18 19 19 20 21 22 22 23 24 24 24 24 24 24 24 23 24 24 24 23 22 21 20 19 18 18 18 18 18 18 19 19 20
12 12 13 14 14 14 15 16 17 17 18 19 20 21 21 22 23 24 24 24 24 24 24 24 23 23 24 24 25 24 23 21 20 20 19 18 18 18 18 18 19 19 18
11 12 13 14 14 14 15 16 16 17 18 19 20 21 22 23 24 24 25 24 24 24 24 24 24 24 24 24 25 25 23 22 20 19 19 19 19 19 19 19 19 18 18
11 12 12 13 14 14 15 15 16 17 18 19 20 21 23 24 24 25 25 25 25 24 24 25 25 25 25 25 25 25 24 22 20 19 19 19 19 19 19 20 19 18 18
11 11 12 13 13 14 14 15 16 18 19 20 21 22 23 24 25 25 25 25 25 25 24 25 26 26 26 26 26 25 24 22 21 20 19 19 19 19 20 20 19 18 18
11 11 11 12 13 14 14 15 16 18 19 20 22 22 23 24 25 25 25 25 25 25 25 25 26 26 27 27 27 26 24 22 21 20 20 20 19 19 19 19 18 17 17
11 11 11 11 12 13 14 15 16 17 19 20 22 23 23 24 24 25 25 26 26 26 26 26 26 27 28 28 28 27 25 23 22 21 21 20 20 20 20 19 18 17 16
11 11 10 11 11 12 13 15 16 17 18 20 21 23 24 24 24 25 26 26 27 27 27 27 27 27 28 28 28 27 26 24 24 23 21 21 21 21 20 19 18 17 16
10 10 10 11 11 12 14 14 15 16 18 19 21 23 24 24 25 25 26 27 27 27 28 28 28 28 28 29 28 28 27 26 25 24 24 23 22 21 20 18 17 16 16
10 10 10 11 11 12 13 14 15 16 18 19 20 22 24 25 25 26 26 27 27 27 28 28 29 29 30 29 29 29 28 27 26 25 25 24 23 21 19 18 17 16 15
10 10 10 10 11 12 13 14 16 16 17 18 20 22 23 25 26 26 27 27 28 28 28 29 30 30 30 30 30 30 29 28 28 27 26 24 22 20 18 18 17 16 15
10 10 10 11 11 12 13 14 15 16 17 18 20 22 23 25 26 26 27 28 28 29 30 30 31 30 30 30 30 30 29 29 29 28 27 24 22 19 18 17 16 15 15

GEFSGL_500_meanwind_198.txt.gz
Wind_Speed
19 18 17 16 16 17 17 17 17 17 17 18 19 20 20 20 20 21 22 22 22 22 22 22 23 23 24 25 25 26 26 28 28 28 28 28 28 29 30 31 33 33 33
17 16 15 15 15 16 16 15 16 16 16 17 19 19 19 19 20 20 20 21 21 22 22 21 21 22 22 23 24 25 25 27 28 27 27 28 28 28 29 30 31 32 32
16 15 14 13 14 14 14 15 15 15 16 17 18 18 18 18 19 19 20 20 21 21 21 21 21 21 22 23 23 23 23 25 26 26 26 26 27 27 28 30 30 31 32
16 16 14 13 13 14 14 14 14 15 15 16 17 17 16 17 18 18 19 20 20 21 20 21 21 21 22 22 22 23 23 24 25 25 24 24 24 25 27 28 28 28 30
16 16 15 13 14 14 13 14 15 15 15 16 17 16 17 17 18 19 19 20 21 21 21 21 21 21 21 21 22 22 23 24 25 25 24 25 24 24 25 26 27 27 28
16 15 13 12 13 13 13 13 15 15 17 18 18 17 18 18 18 19 19 20 21 21 20 20 21 20 21 21 22 22 23 24 24 24 23 24 24 24 25 26 26 26 27
16 13 12 13 13 14 13 14 15 16 17 18 18 18 18 18 18 19 20 21 22 22 21 21 21 20 21 22 22 23 24 24 25 24 24 24 24 24 24 24 25 26 26
14 13 12 13 13 13 14 14 16 17 17 17 18 18 19 19 19 20 21 22 22 22 22 21 21 21 22 23 23 23 25 25 24 24 23 22 23 23 24 24 25 26 26
14 13 13 13 13 14 15 16 16 17 17 17 18 18 19 20 21 22 22 22 22 22 22 22 23 23 23 24 24 24 25 24 24 23 22 23 23 24 24 24 24 25 25
13 13 13 13 13 14 15 16 16 16 17 18 18 19 20 21 21 22 23 22 22 23 23 23 23 24 24 24 25 25 25 24 23 23 23 23 23 23 23 23 24 24 24
13 13 14 13 14 15 15 16 17 17 18 18 19 20 21 22 22 23 23 23 23 24 24 24 23 24 25 25 25 25 24 23 23 22 22 22 22 21 21 21 23 23 24
13 13 14 14 14 15 16 17 18 18 18 19 19 20 21 22 23 23 23 23 24 25 24 24 24 24 25 25 25 25 24 24 23 22 21 21 21 20 20 19 20 21 22
13 13 14 14 15 16 16 17 18 18 19 19 19 20 20 22 23 23 24 24 24 25 25 25 25 25 26 26 25 25 24 24 23 22 21 21 21 20 20 20 20 21 22
14 14 14 14 15 16 17 17 18 18 18 18 19 20 21 22 23 23 23 24 25 25 26 25 25 25 25 25 25 25 24 24 23 22 22 21 21 21 21 21 21 21 22
14 15 14 14 14 15 16 16 17 17 17 18 19 20 22 23 23 24 25 26 26 26 26 26 25 25 24 25 25 25 24 24 23 22 21 20 20 21 20 21 21 21 21
14 14 14 13 14 14 15 15 16 17 17 19 20 21 22 23 24 24 25 27 27 27 26 26 25 25 25 25 25 25 25 25 24 23 22 21 21 20 20 20 20 20 20
14 14 14 14 15 14 15 15 15 16 18 19 20 21 22 23 24 25 26 27 28 27 26 25 25 25 25 25 26 26 26 26 25 23 22 21 20 20 20 20 19 19 20
14 14 14 14 14 14 14 15 16 17 18 19 20 21 22 23 24 25 26 27 27 27 26 26 25 26 26 26 26 27 27 26 25 24 23 21 21 20 20 20 20 19 19
14 14 14 13 14 14 14 15 16 17 18 19 20 21 22 23 24 25 27 27 27 27 27 26 26 26 26 27 27 27 28 27 26 25 23 22 21 21 21 21 20 19 19
13 13 13 13 14 14 15 15 16 17 18 20 20 21 22 23 24 26 26 27 28 28 28 27 26 27 27 27 28 28 28 28 27 26 24 23 22 22 21 20 19 19 18
13 12 12 13 14 15 15 15 16 17 18 19 20 21 22 23 24 25 26 27 28 28 28 28 27 27 28 28 29 29 28 28 28 27 25 24 23 22 21 20 19 19 19
12 13 13 13 14 14 15 15 16 16 17 18 19 20 22 23 24 25 26 27 28 30 30 30 28 28 28 29 29 30 29 28 28 27 26 25 24 22 21 20 19 19 18
13 12 12 13 13 14 14 15 16 16 17 17 19 20 21 23 24 25 25 27 29 31 31 31 30 29 29 29 30 30 30 29 28 28 27 26 24 23 21 20 18 17 17
13 12 12 12 13 13 14 15 16 16 16 18 20 21 22 23 24 24 25 28 29 31 31 30 30 30 30 30 31 31 30 29 28 27 27 26 25 23 22 20 18 17 16
13 13 12 13 12 13 14 15 16 16 16 18 19 21 22 23 24 25 26 28 29 30 31 31 31 30 31 31 31 31 29 29 28 27 26 25 24 23 21 19 18 16 15
14 14 13 13 13 14 14 15 16 16 16 17 19 21 22 23 24 26 27 28 29 30 30 31 31 31 32 32 31 30 29 29 28 27 26 24 23 22 20 19 17 16 15

GEFSGL_500_meanwind_204.txt.gz
Wind_Speed
18 16 15 14 13 13 12 13 13 14 14 15 15 17 18 18 19 19 20 20 20 20 20 20 21 21 22 22 21 21 22 22 22 23 24 25 27 28 27 27 27 28 30
17 15 14 14 14 13 13 12 12 13 13 14 15 16 17 17 17 18 18 19 19 20 20 20 21 21 21 21 20 21 21 21 22 22 23 25 25 26 25 26 27 28 29
15 15 14 14 13 13 12 12 12 12 13 14 15 15 15 15 16 17 17 17 18 19 19 20 20 20 20 20 20 20 20 21 21 21 22 24 24 24 24 26 27 28 28
15 14 14 13 13 13 12 11 11 12 13 15 15 14 15 15 15 16 16 16 17 18 18 19 20 20 20 20 19 19 19 20 20 21 21 22 22 23 23 25 26 26 27
15 14 14 14 13 13 12 12 12 13 14 15 15 15 15 16 15 14 15 16 17 18 19 20 20 20 20 19 18 18 19 19 19 20 20 20 21 22 22 24 25 26 27
15 14 13 13 13 13 12 12 12 13 15 15 15 15 16 16 15 15 16 16 18 19 20 20 20 20 20 19 18 18 18 19 19 20 21 21 22 22 23 23 24 25 25
15 14 13 13 13 13 12 12 13 14 14 14 14 15 15 15 15 15 16 18 19 20 20 21 20 19 19 18 18 18 18 18 19 20 21 22 22 23 23 23 24 24 25
15 14 13 13 12 13 13 13 13 13 14 14 15 15 15 15 15 16 18 19 19 20 21 21 21 20 19 19 18 19 18 18 20 21 21 21 21 21 22 23 24 24 25
15 14 13 13 12 13 13 13 13 14 14 14 15 15 15 16 16 17 18 19 20 21 21 21 21 22 21 20 20 20 19 19 20 21 21 21 21 22 23 23 24 24 25
14 13 13 13 13 14 14 13 13 14 14 15 15 15 16 16 17 18 19 20 21 21 21 22 22 22 21 21 20 20 19 19 20 21 21 22 23 23 24 24 24 24 25
13 13 13 12 12 13 13 14 14 14 14 14 15 15 16 16 17 18 19 20 21 21 22 22 22 22 21 21 21 20 20 20 20 21 22 22 23 23 24 24 24 24 25
13 13 13 13 13 13 13 13 14 14 14 14 15 16 16 17 18 18 19 20 21 22 22 23 22 22 22 22 22 22 21 21 21 21 22 22 22 23 23 23 24 23 24
13 13 13 13 13 12 13 13 14 15 15 14 15 16 16 17 18 19 20 20 21 22 23 23 23 22 22 23 23 23 23 22 22 22 23 23 23 22 23 23 23 23 23
13 13 13 13 13 13 13 13 14 14 14 15 16 17 18 18 19 19 20 21 22 22 23 23 23 23 23 24 24 24 24 23 23 23 23 23 22 22 22 22 22 21 21
13 13 13 13 13 13 14 13 14 15 15 16 16 17 18 18 19 20 21 22 22 22 23 23 24 24 24 24 24 25 25 25 24 23 23 22 21 20 21 21 20 20 20
14 13 13 13 13 13 13 14 14 15 16 16 16 17 18 19 19 20 21 21 22 22 23 24 24 25 25 25 25 26 25 25 24 23 23 22 21 20 20 20 20 20 19
13 13 13 12 12 12 13 14 14 14 15 16 17 18 18 19 20 20 21 22 22 23 24 25 25 26 26 26 26 26 25 25 25 25 24 23 22 21 21 20 20 20 19
14 13 13 12 13 12 13 13 14 14 15 16 17 18 18 19 19 20 21 22 23 24 25 25 26 27 27 26 26 26 26 26 25 25 24 23 22 21 21 21 20 19 18
14 13 13 12 13 13 13 14 14 14 15 15 16 17 18 19 20 20 21 22 23 24 25 26 27 27 27 26 26 26 26 26 25 25 25 24 23 21 21 20 19 19 18
14 14 13 13 13 13 13 13 14 14 15 15 16 17 18 19 20 21 22 23 24 25 25 27 27 27 27 27 27 27 26 25 25 25 25 24 23 22 21 20 19 18 17
14 14 14 14 13 13 13 13 14 14 15 16 17 18 19 20 21 22 23 24 24 25 26 27 27 27 27 27 28 27 27 26 26 25 25 24 23 22 21 20 19 18 17
15 15 14 14 14 14 13 13 13 13 14 16 17 18 19 20 20 22 23 24 25 26 26 27 27 27 27 27 28 28 27 26 25 25 24 24 22 22 21 20 19 18 17
15 15 15 15 15 14 13 13 13 14 15 16 18 19 19 20 21 22 23 25 26 26 26 27 27 28 28 28 28 27 27 25 25 24 23 22 22 21 20 19 19 18 17
16 15 15 15 14 14 13 14 14 14 15 17 18 19 19 20 22 23 24 25 25 26 26 27 27 28 28 28 27 27 26 25 24 24 23 22 22 20 19 19 18 18 18
17 16 15 15 14 14 14 14 14 15 16 18 19 20 20 21 22 23 23 24 25 26 27 27 28 28 28 28 27 27 26 25 24 23 22 22 21 20 19 18 18 18 18
17 17 16 16 15 15 15 15 15 16 17 18 19 20 20 21 22 22 23 24 25 26 27 27 27 28 28 28 27 26 25 25 23 22 22 21 20 19 18 18 17 17 16

GEFSGL_500_meanwind_210.txt.gz
Wind_Speed
17 17 17 16 16 16 16 15 15 16 17 17 18 18 18 18 18 19 19 19 19 20 21 21 21 22 21 22 23 23 24 24 24 24 25 25 26 27 28 30 30 29 30
17 17 16 16 16 16 16 15 16 17 17 17 17 16 16 17 18 18 18 18 18 18 19 20 20 21 21 21 21 22 22 22 23 23 23 25 25 26 27 27 28 28 28
17 16 16 16 16 16 16 16 17 17 17 16 15 15 16 17 17 17 17 17 17 18 18 19 20 20 20 20 20 20 20 20 21 22 23 24 24 24 25 25 27 27 28
16 15 15 16 17 16 16 16 16 16 15 14 14 15 16 17 17 16 15 15 16 16 17 18 19 19 19 18 19 18 18 19 20 21 22 22 23 24 24 25 26 27 28
15 15 15 16 16 15 15 15 15 15 14 14 14 15 16 16 16 14 13 14 15 16 17 17 18 17 17 18 17 17 17 19 20 21 21 21 22 23 24 25 26 27 28
15 15 15 15 15 15 14 14 14 14 13 13 14 15 15 15 15 14 14 15 16 16 16 17 17 17 18 18 18 18 19 19 20 20 21 22 22 23 24 25 25 26 27
15 15 15 15 15 14 14 14 14 13 13 13 13 14 15 15 15 15 15 15 16 17 18 19 19 19 20 21 20 20 20 19 20 20 21 22 22 23 24 25 25 26 27
16 16 15 15 14 14 14 14 13 13 13 13 14 14 15 15 15 16 16 16 17 18 19 20 21 21 22 22 21 22 21 21 21 22 22 23 23 23 24 25 25 26 27
17 16 15 14 14 13 13 13 13 13 13 13 14 15 15 16 16 16 16 16 17 19 20 21 22 23 23 23 23 23 22 22 22 22 23 24 24 24 25 26 26 27 27
16 15 15 15 14 13 13 13 13 13 13 14 15 15 16 16 16 17 17 18 18 20 21 22 23 24 24 25 24 24 23 23 23 23 23 24 24 24 25 25 26 26 26
16 16 15 15 14 14 13 13 13 13 14 14 15 16 16 16 17 17 18 19 20 21 22 23 24 25 25 25 25 24 23 23 24 24 24 24 24 24 24 25 25 26 26
16 16 15 14 14 13 13 13 14 13 14 15 16 17 17 17 17 18 19 20 21 22 23 24 24 25 25 26 25 25 24 24 24 23 23 23 24 24 24 24 25 25 26
16 15 14 13 13 13 12 13 13 13 14 15 16 17 17 17 18 19 20 21 22 23 24 25 25 26 26 26 27 26 25 25 25 24 24 24 24 24 24 24 24 25 25
16 15 14 14 14 13 13 13 13 14 14 15 16 17 17 18 19 20 21 22 23 23 24 25 26 26 26 26 26 26 25 25 24 24 24 24 24 24 25 25 24 24 23
16 15 15 14 14 14 14 14 14 14 14 15 16 17 17 18 20 21 22 22 22 23 24 25 25 26 27 27 26 26 26 25 25 24 24 24 25 25 25 25 24 23 22
15 15 15 15 15 15 14 14 14 15 15 16 16 17 18 19 20 21 22 22 22 23 24 25 26 26 27 27 26 26 26 26 25 25 24 24 25 25 25 24 23 22 21
15 14 15 16 16 15 14 14 14 15 16 17 17 17 18 19 20 21 22 22 23 24 24 25 26 26 26 27 26 26 26 26 25 25 24 24 24 24 24 23 22 21 20
15 15 16 16 16 15 15 15 14 15 15 16 16 17 18 18 20 21 21 23 23 24 24 24 25 25 26 27 27 26 25 25 25 24 24 24 23 23 23 22 21 20 19
16 16 16 16 16 16 15 15 15 15 15 16 16 17 18 19 19 20 22 23 24 25 25 24 25 25 26 27 26 26 25 24 24 24 24 24 23 23 22 21 20 19 18
17 17 17 17 17 16 15 15 15 15 15 16 17 17 18 19 20 21 22 23 24 24 25 25 25 25 26 27 27 26 25 24 24 24 24 24 23 22 21 20 19 18 18
17 17 17 17 17 16 16 15 15 15 15 16 17 18 19 20 21 21 22 23 24 24 25 25 25 26 27 27 27 26 25 25 24 24 24 23 22 21 20 19 18 18 18
18 18 18 17 17 16 15 15 15 16 16 17 18 18 19 20 21 21 22 23 24 25 26 25 26 26 27 27 27 26 25 25 25 24 24 23 23 21 20 19 19 19 18
19 19 18 18 17 17 16 15 16 17 17 17 18 19 19 20 21 21 22 22 24 25 25 25 26 26 26 26 26 26 25 25 24 24 24 23 23 21 20 19 19 19 18
19 19 19 18 18 17 16 16 16 16 17 18 19 19 20 20 20 21 22 23 24 24 25 26 26 25 25 25 25 25 24 24 24 23 22 22 22 22 21 20 19 18 18
20 19 18 18 17 16 16 16 16 17 17 18 19 20 20 20 21 22 22 23 24 24 25 26 26 25 24 24 25 24 24 23 23 23 23 22 22 22 21 20 19 18 18
18 18 18 18 17 17 17 17 17 18 18 19 20 20 20 21 22 23 23 24 24 24 25 25 25 25 24 24 24 24 24 23 22 23 22 22 21 21 20 19 19 18 18

GEFSGL_500_meanwind_216.txt.gz
Wind_Speed
14 14 14 14 13 13 13 14 14 13 14 14 13 14 14 15 16 16 16 16 16 17 18 18 18 18 18 19 19 20 21 23 23 23 23 24 25 26 27 27 28 28 28
14 14 13 13 13 13 13 13 13 13 14 13 13 13 14 15 15 16 16 15 15 16 16 17 17 17 17 18 19 19 20 21 21 22 23 23 24 25 26 27 28 28 29
14 14 13 12 13 13 13 13 13 13 13 13 13 13 14 14 15 15 15 15 15 15 15 15 16 16 16 17 18 18 20 20 20 21 22 24 24 26 27 28 28 28 29
14 13 13 13 13 13 13 13 13 13 13 13 13 13 13 13 13 13 14 14 13 14 15 15 15 16 17 18 17 18 19 20 21 22 22 23 24 25 26 27 27 28 29
14 13 13 13 13 13 12 12 12 12 12 13 13 13 13 13 13 13 13 13 13 13 14 14 15 17 18 18 18 19 20 21 21 22 22 22 23 24 25 26 27 28 29
14 13 13 13 12 12 12 12 12 13 13 13 13 13 13 13 13 14 14 15 15 15 15 15 16 17 18 19 19 19 20 20 21 21 22 21 22 23 24 25 26 28 29
13 13 12 12 12 12 12 12 13 13 13 13 13 13 13 13 14 14 15 16 16 16 16 17 18 19 19 20 20 21 20 21 22 22 22 22 22 23 24 24 25 27 28
13 13 13 12 12 12 13 13 13 13 13 13 13 14 14 14 14 15 15 16 16 16 17 18 19 20 21 21 21 22 22 22 22 22 22 22 22 23 23 24 25 26 27
13 13 14 13 13 13 14 13 13 13 13 14 14 14 14 14 14 15 15 15 16 16 18 19 20 21 21 22 22 22 22 23 23 23 23 23 23 23 24 25 25 25 26
14 13 14 14 14 14 14 14 14 13 14 14 14 14 14 14 15 15 15 16 17 17 18 20 20 21 21 21 22 23 23 24 24 24 23 23 23 24 24 24 25 25 26
14 14 15 15 15 15 14 14 14 13 14 14 14 15 15 15 15 15 16 17 18 18 19 19 19 20 21 22 23 24 24 25 25 24 23 23 23 23 23 24 24 24 25
15 15 16 15 15 14 14 13 13 14 14 15 15 15 15 16 16 16 17 18 19 19 19 19 19 20 21 23 24 24 24 24 23 23 22 23 23 22 22 22 23 24 24
16 16 16 16 15 14 14 13 13 14 14 15 15 15 15 16 16 17 17 17 18 18 18 19 20 21 22 23 23 23 24 23 22 22 21 21 21 21 20 20 20 22 23
17 16 15 15 14 14 14 14 14 15 15 15 15 16 16 16 16 16 16 17 17 17 18 18 19 20 22 22 22 23 24 23 23 22 21 21 20 20 20 19 20 22 23
17 16 15 14 14 14 13 13 13 14 15 14 15 15 15 16 16 17 16 17 17 17 18 19 19 20 21 22 23 23 23 23 23 22 21 21 21 20 20 19 20 21 22
17 16 16 15 15 14 14 13 14 14 14 13 13 13 14 15 15 16 16 17 17 18 18 19 20 21 22 23 23 23 23 23 23 22 21 21 20 20 20 19 19 20 20
17 16 16 15 15 15 14 14 14 14 14 14 13 13 14 15 16 17 17 18 18 18 18 19 21 21 21 22 22 23 23 23 22 21 21 20 20 20 19 19 19 19 19
17 17 17 17 16 16 15 14 14 14 14 14 14 14 15 16 17 17 18 18 19 19 19 20 20 21 21 21 22 22 23 23 22 21 21 20 20 20 20 20 20 19 19
17 17 17 17 16 16 15 14 14 14 14 14 14 14 15 16 17 17 18 18 18 19 19 20 21 21 21 21 22 22 22 23 22 22 21 21 21 21 21 20 20 20 19
17 17 17 17 16 16 15 14 14 14 14 14 14 15 15 16 17 17 18 18 18 19 20 20 20 20 21 22 22 23 23 23 23 22 22 21 21 21 21 21 21 20 19
17 16 16 16 16 16 15 14 14 15 15 15 15 15 15 16 17 18 19 19 19 20 20 20 21 21 21 22 23 23 23 23 23 22 22 21 22 22 22 22 21 20 19
17 17 16 16 15 14 14 14 15 15 15 15 15 15 16 16 17 18 19 19 20 21 21 21 21 22 22 22 23 23 23 23 23 22 22 22 23 23 23 22 21 20 19
17 17 17 16 16 15 15 16 16 16 16 16 16 16 16 16 17 18 19 20 21 21 21 21 22 22 22 23 23 23 23 23 23 23 22 22 22 23 23 22 21 19 18
17 17 16 16 16 16 16 16 16 17 17 16 16 16 17 17 18 19 20 21 21 22 22 22 22 22 22 23 23 23 23 23 23 22 22 23 23 23 22 21 20 19 18
18 18 17 17 17 17 16 17 17 17 17 17 17 18 18 18 19 20 20 20 20 21 21 22 22 22 22 23 23 22 22 21 21 22 22 23 23 22 22 20 20 20 17
19 18 18 18 17 17 17 17 17 18 17 17 18 18 18 18 18 19 19 20 20 21 21 21 22 22 22 22 22 21 21 21 21 22 22 23 23 22 21 20 19 19 17

GEFSGL_500_meanwind_222.txt.gz
Wind_Speed
15 14 14 14 14 14 14 14 14 14 14 14 14 14 15 15 15 15 16 16 17 18 18 18 19 19 19 20 21 21 22 22 21 21 22 23 24 24 24 25 26 26 26
15 14 14 14 14 14 15 15 15 15 15 15 15 14 14 14 15 15 15 16 17 18 18 18 18 19 19 20 20 21 21 21 21 20 21 22 23 24 25 25 25 25 25
15 14 14 15 15 15 16 15 15 16 16 15 15 15 15 15 16 15 15 16 17 18 18 18 18 19 19 19 20 20 21 21 21 21 21 22 23 24 24 25 24 25 25
15 15 15 15 16 16 16 16 16 16 16 16 16 16 17 17 16 15 16 16 17 18 18 18 18 19 19 19 20 20 20 20 21 21 21 21 22 23 23 23 23 24 25
16 15 15 15 16 15 16 16 15 16 16 16 16 17 17 17 16 16 17 17 17 17 17 17 18 18 19 19 19 20 20 21 22 21 21 21 21 22 22 23 23 24 26
16 15 15 15 15 14 15 15 16 16 17 17 18 18 18 17 17 17 17 17 17 17 17 17 17 18 19 20 20 21 22 21 22 22 22 22 22 22 21 21 22 24 25
15 15 14 14 14 14 15 16 16 16 17 17 17 17 18 18 17 17 17 17 17 17 17 18 18 19 20 21 21 22 22 22 22 22 22 22 22 22 22 21 22 22 23
15 15 15 15 15 15 16 16 15 16 16 17 17 17 17 18 18 18 17 18 17 18 18 19 20 21 21 22 22 23 23 23 22 22 23 23 24 24 24 23 23 22 23
15 15 16 16 16 16 16 16 16 17 17 17 17 17 18 18 18 18 17 17 17 17 17 18 20 21 21 22 22 22 23 23 23 23 24 24 24 24 24 24 24 23 23
17 17 16 16 16 16 17 17 17 18 18 18 18 18 18 18 18 18 17 17 17 17 18 19 19 20 21 21 22 22 22 23 23 23 24 24 25 25 24 24 24 24 23
18 17 16 17 17 17 17 17 17 17 17 17 18 18 18 18 17 17 17 17 17 18 18 19 19 20 21 21 21 21 22 22 22 23 23 24 24 24 24 24 24 24 23
18 18 17 17 18 18 18 18 17 17 17 17 18 18 18 18 17 17 17 17 18 19 19 19 19 20 21 21 21 21 22 22 23 23 23 23 23 23 23 24 24 24 24
19 18 18 18 18 19 19 18 18 18 18 18 18 18 17 17 16 16 16 16 17 18 18 18 19 20 20 21 21 21 22 23 23 23 23 23 23 23 23 23 23 23 23
19 19 19 19 19 18 18 19 19 18 18 18 18 18 17 16 16 16 16 17 17 17 17 18 19 20 20 21 21 21 22 23 23 23 23 23 22 23 22 22 22 22 22
20 20 20 19 19 19 19 20 19 18 18 18 18 18 16 16 16 16 16 17 17 18 18 19 20 21 21 20 20 21 22 24 24 24 24 23 23 23 22 22 22 22 22
19 19 19 18 19 19 19 19 18 18 18 17 17 16 15 15 15 16 16 17 17 18 18 19 20 20 20 21 22 22 23 24 24 24 24 23 22 22 22 22 22 21 21
19 19 19 19 19 19 19 18 18 18 18 17 16 15 14 15 15 15 15 16 17 17 18 19 20 20 21 22 23 23 24 24 24 24 23 22 22 21 21 21 21 20 20
19 19 19 19 18 18 18 17 17 17 17 15 15 15 15 15 15 15 15 16 16 17 18 19 19 20 21 22 22 23 24 24 24 23 23 22 21 21 21 20 20 20 20
20 19 19 19 18 18 17 17 16 16 15 14 14 14 14 14 14 14 15 16 17 17 18 19 20 21 21 22 23 24 24 24 23 22 22 21 20 20 21 21 21 21 21
20 19 19 19 19 18 18 17 17 16 15 14 15 15 15 15 15 15 16 17 17 18 19 20 21 21 22 23 23 24 24 23 23 22 21 21 21 21 21 21 21 22 22
21 20 20 19 19 18 18 18 17 16 15 15 15 15 15 15 15 16 16 17 17 19 20 21 22 23 23 24 24 24 23 23 23 22 22 22 22 22 22 22 22 23 23
21 21 20 20 20 19 19 18 17 17 16 16 16 16 16 16 16 16 17 18 19 20 21 22 23 24 24 24 24 23 23 24 23 22 22 22 23 23 23 24 24 24 23
22 21 21 21 20 20 19 19 19 18 17 17 17 17 18 18 18 18 19 19 20 21 22 23 24 24 24 24 24 23 23 23 23 23 23 23 23 23 24 24 24 23 23
22 22 22 21 20 20 19 19 19 18 18 18 18 19 19 19 20 20 20 21 22 22 23 24 24 24 24 24 24 24 24 24 23 23 24 24 24 24 24 24 24 23 23
23 22 21 21 20 20 20 20 20 20 20 20 20 20 20 20 20 21 22 22 23 23 24 24 24 23 23 23 23 23 23 23 23 23 23 24 23 23 24 25 24 23 21
22 21 21 21 21 21 21 21 21 21 21 21 21 22 21 21 22 22 23 24 23 23 24 24 24 23 23 23 23 22 22 22 22 23 24 24 24 24 24 24 23 21 20

GEFSGL_500_meanwind_228.txt.gz
Wind_Speed
12 12 12 13 13 13 13 13 13 13 13 13 13 14 14 14 14 14 15 14 15 15 16 17 17 17 17 18 18 19 20 20 20 21 22 22 23 24 24 25 25 26 26
12 12 13 13 14 14 14 13 13 13 13 14 14 15 15 15 14 13 13 13 15 16 16 16 17 17 18 19 18 19 19 20 20 21 22 22 22 23 24 24 24 25 25
13 13 13 14 14 15 15 14 14 14 14 14 15 15 14 14 14 13 13 13 14 15 15 16 16 17 17 18 18 18 19 19 20 21 21 21 22 22 23 23 23 24 25
13 14 14 15 15 15 15 15 14 14 14 15 15 14 13 14 14 14 14 14 14 14 15 16 17 17 17 18 18 19 19 20 20 21 21 21 21 21 22 23 24 24 25
14 14 14 15 15 15 15 15 15 14 14 14 13 13 13 14 15 15 16 16 15 15 15 16 16 17 17 17 18 19 19 20 20 20 20 21 21 21 22 23 24 25 25
15 15 15 15 15 15 15 15 15 15 14 14 14 14 14 14 15 15 16 16 16 16 16 16 16 16 16 17 17 18 19 20 20 20 21 21 21 21 21 21 23 23 24
16 15 14 14 15 15 15 14 14 14 14 13 13 14 15 15 15 15 15 16 16 17 17 16 16 16 17 18 18 19 19 20 21 21 22 21 21 21 21 21 22 23 24
16 15 15 15 14 14 14 14 14 14 14 14 14 15 15 16 16 16 16 16 16 16 16 16 16 17 18 18 19 19 20 20 21 21 22 21 21 21 21 22 22 23 23
16 16 16 16 15 15 15 15 14 14 14 14 15 15 16 16 16 16 16 16 16 16 17 16 17 17 18 18 18 19 20 21 21 21 22 21 21 22 22 22 22 22 22
17 17 16 16 16 15 15 15 15 15 15 15 16 16 17 17 17 18 17 17 17 17 17 17 17 18 18 18 19 19 20 21 21 21 21 21 21 21 22 22 22 23 23
17 17 16 16 16 16 16 16 16 16 16 16 17 18 18 18 18 18 19 19 19 18 18 18 18 18 18 19 19 20 21 21 21 20 20 20 21 22 22 22 22 23 22
18 17 17 17 16 16 17 17 17 17 17 17 18 19 18 18 18 18 19 19 18 18 18 18 19 19 19 19 20 20 21 21 20 20 20 21 21 22 22 22 23 22 22
19 18 17 17 17 18 18 18 19 19 19 19 20 19 19 18 18 18 18 18 17 17 17 18 18 19 20 20 20 21 22 21 20 20 21 21 22 22 22 22 22 22 22
19 18 18 18 18 18 18 19 20 20 19 19 19 19 18 18 18 17 16 16 15 15 16 18 18 18 19 20 21 21 21 20 20 21 21 21 21 21 21 21 21 21 22
19 18 19 19 19 18 19 19 20 20 20 19 19 18 18 16 16 15 15 15 15 15 16 17 18 18 19 20 20 20 20 20 20 20 21 21 21 21 21 21 22 22 22
19 19 20 20 20 20 20 20 20 20 19 19 19 18 17 17 16 15 15 16 16 16 16 17 17 17 18 19 18 18 19 19 19 20 20 21 21 21 21 21 21 22 22
20 20 20 20 21 21 21 21 20 20 19 19 18 17 16 16 15 15 15 15 16 16 16 16 17 18 18 19 18 18 19 19 19 19 20 20 20 20 20 21 21 21 21
21 20 20 20 21 21 21 22 21 20 19 18 17 16 16 15 14 14 14 14 15 15 15 16 16 17 18 18 18 19 19 19 19 19 20 20 20 20 21 21 21 21 21
21 22 21 21 21 21 21 22 21 20 19 18 17 16 16 15 14 14 14 13 14 14 15 16 16 17 17 17 18 18 18 19 20 20 20 20 21 21 21 21 21 21 21
22 22 22 22 22 21 21 20 20 19 18 17 17 17 16 15 15 14 14 15 15 15 16 16 16 17 17 17 18 18 19 19 20 21 21 21 21 21 22 21 21 22 22
22 23 23 22 21 21 21 20 19 18 18 17 17 17 16 16 15 15 15 16 16 16 16 17 17 17 18 19 19 20 20 20 21 22 22 22 22 22 22 22 22 22 22
23 23 22 21 21 20 20 19 18 17 17 16 17 16 16 16 16 16 16 17 17 17 17 18 18 18 19 20 20 20 21 22 22 23 23 23 23 23 22 22 22 22 21
23 22 21 21 21 20 19 19 19 18 17 17 17 17 17 16 17 17 17 17 17 17 18 18 19 20 20 20 21 21 22 23 23 24 23 23 23 23 23 22 22 21 21
22 21 21 21 20 20 20 20 19 19 18 18 17 17 17 17 17 17 17 17 17 17 17 18 19 20 20 21 22 22 23 24 24 24 24 23 23 23 22 21 21 20 20
22 21 21 21 20 20 19 19 19 18 18 18 17 17 17 18 18 17 17 17 18 18 18 19 20 20 21 22 22 23 23 24 24 24 23 23 22 21 20 20 19 19 19
21 21 21 21 20 20 19 19 19 19 19 18 18 18 18 18 18 17 17 18 18 19 19 19 20 21 21 22 22 23 23 23 22 22 21 20 20 19 19 18 18 17 17

GEFSGL_500_meanwind_234.txt.gz
Wind_Speed
14 13 13 13 13 13 13 14 14 14 14 13 13 13 13 14 14 14 15 15 15 16 16 17 18 18 18 19 20 20 21 21 21 22 22 23 24 24 25 26 26 26 27
13 14 13 13 14 14 14 14 14 14 14 13 13 13 13 13 13 14 15 15 16 16 17 17 18 18 19 19 19 20 20 21 21 21 22 22 23 24 25 26 26 26 26
14 13 13 14 14 14 14 14 14 14 13 13 13 13 13 14 14 15 15 15 16 16 17 17 18 18 18 19 20 21 21 21 22 22 22 23 23 24 24 24 25 26 26
14 14 14 14 14 14 14 15 14 14 13 13 13 14 14 14 15 15 16 16 16 17 16 17 18 18 18 19 20 21 21 22 23 23 23 23 23 24 24 24 24 25 26
15 15 15 15 15 15 15 15 14 14 14 14 14 14 15 16 16 17 17 17 17 17 16 17 18 19 19 19 20 21 21 22 22 23 23 24 24 24 24 24 24 25 25
15 15 15 15 15 15 15 15 14 14 14 14 15 15 15 16 17 17 17 17 17 17 18 18 19 19 20 20 20 21 21 22 23 23 24 24 24 24 24 24 24 25 25
16 16 16 15 15 15 15 15 15 15 15 15 16 16 16 17 17 17 17 17 17 17 18 18 19 19 19 20 20 21 21 21 22 22 23 23 23 24 24 24 24 25 25
16 16 16 16 15 15 15 15 15 15 15 16 17 17 17 17 17 17 17 17 17 18 18 18 19 19 19 20 20 21 21 21 21 22 22 22 23 23 23 23 24 25 25
16 17 17 17 16 16 15 15 16 16 16 17 17 17 18 18 18 18 18 17 17 18 18 18 19 19 19 19 20 20 21 22 22 22 22 23 24 25 24 24 24 24 24
17 17 17 17 17 16 16 16 17 17 17 17 17 18 18 18 18 18 18 18 18 19 19 19 19 20 20 20 20 20 21 22 22 22 22 23 24 25 25 25 25 24 24
18 18 17 17 17 17 17 17 17 17 17 17 17 18 18 18 19 19 19 20 20 20 20 20 20 19 20 20 20 20 21 21 21 21 21 22 23 24 24 24 24 23 23
18 18 18 18 18 17 17 18 18 18 18 18 19 19 20 19 19 20 20 20 20 20 20 20 19 19 20 20 20 20 20 20 20 20 21 22 23 23 22 22 22 22 22
19 19 18 18 18 18 18 18 19 19 19 19 20 20 20 20 20 20 21 21 21 20 20 19 19 19 19 19 20 21 21 20 21 21 21 22 23 23 21 21 22 22 22
20 20 19 19 19 19 19 19 19 20 20 20 20 20 20 20 21 20 21 21 21 20 19 19 19 19 19 19 20 21 21 21 22 22 22 23 24 23 22 22 22 23 23
20 20 20 20 20 20 20 19 20 20 21 22 21 21 21 20 20 20 20 20 19 19 18 18 18 18 19 19 20 20 21 21 22 23 23 23 22 21 21 22 22 22 22
21 22 21 21 21 20 20 20 21 21 21 22 21 21 21 20 20 20 20 19 19 18 17 17 17 17 17 18 18 19 19 20 21 21 22 22 21 21 21 22 22 23 23
23 23 23 23 23 22 21 22 22 22 22 21 21 21 20 20 20 20 20 19 18 18 17 18 17 17 17 17 18 18 18 19 20 20 20 20 20 21 21 22 22 23 24
24 24 24 24 24 23 23 23 23 23 22 22 21 21 21 20 19 20 20 18 18 17 17 17 16 17 17 18 18 19 19 20 20 20 20 20 21 21 22 22 22 23 23
24 24 25 24 24 23 23 23 23 23 23 22 21 21 21 20 20 20 19 18 18 17 17 17 17 17 17 18 19 19 20 21 20 21 21 22 22 23 22 22 22 22 23
25 25 25 25 24 24 23 23 23 23 23 22 22 21 21 20 20 20 19 19 19 18 18 18 18 18 18 19 19 20 20 20 21 21 22 22 23 23 23 22 22 22 22
25 25 25 24 24 24 23 23 23 23 22 22 22 21 20 19 19 19 19 19 19 18 17 17 17 18 19 19 20 20 20 21 21 22 23 23 23 22 22 22 21 21 21
25 25 24 24 24 24 23 23 22 21 21 21 21 19 19 18 18 18 18 18 17 16 16 17 18 18 20 20 20 20 21 21 22 22 22 22 22 22 21 21 20 20 19
24 23 23 23 22 22 22 21 21 21 20 20 19 19 19 18 18 18 18 17 16 16 16 17 18 19 19 20 19 20 20 20 21 21 21 21 21 21 21 20 19 19 19
23 23 22 22 22 22 21 21 20 20 20 20 19 19 19 19 19 18 17 16 16 16 17 17 17 18 18 19 18 19 19 20 20 20 21 22 22 21 20 19 19 19 19
23 23 22 22 22 22 21 20 19 19 19 19 18 18 18 18 18 17 16 16 16 16 16 17 17 18 18 19 19 19 20 21 21 21 21 22 22 21 20 19 19 19 19
23 23 23 23 22 21 21 21 20 19 19 19 18 18 17 17 17 16 16 16 16 16 17 17 17 18 19 19 19 20 21 21 21 21 21 21 20 20 19 19 19 18 18

GEFSGL_500_meanwind_240.txt.gz
Wind_Speed
15 15 14 15 15 15 15 15 14 14 14 13 13 14 14 14 14 15 15 16 16 16 17 17 17 18 18 19 19 19 19 19 19 20 21 22 23 23 24 25 25 26 27
14 14 14 15 15 15 15 15 14 14 14 13 14 14 14 14 14 14 14 15 15 16 16 16 17 18 19 19 18 18 18 19 19 20 21 22 23 24 25 25 26 26 26
14 13 14 14 15 15 14 15 15 14 14 14 15 15 14 14 15 15 15 15 16 16 16 16 18 19 19 19 19 18 19 19 20 21 22 23 24 24 25 25 26 26 26
13 14 14 14 14 14 14 14 14 14 14 15 15 15 14 14 15 15 15 16 16 17 17 17 18 19 19 19 19 19 20 20 21 21 22 22 23 24 24 25 26 27 27
13 14 14 14 14 14 14 14 14 14 14 15 15 15 15 15 15 15 16 16 16 17 18 19 19 19 19 19 20 20 21 21 22 22 23 23 24 25 26 26 26 27 28
14 14 14 14 14 14 15 14 14 14 14 15 15 15 15 15 15 16 16 16 17 17 18 19 19 20 19 20 20 21 21 22 23 23 23 24 24 25 26 26 26 27 27
15 16 16 15 15 15 15 15 15 15 15 15 15 14 15 15 16 16 16 16 17 17 18 19 19 20 20 21 20 20 21 21 22 22 23 23 24 25 26 26 26 27 26
17 17 17 16 15 15 15 16 16 16 15 15 15 15 15 16 16 16 16 16 17 17 18 19 20 20 21 21 21 21 21 21 22 22 22 24 25 25 26 26 25 25 25
19 18 17 17 17 17 17 17 17 17 16 16 16 16 16 16 16 16 17 17 18 18 19 20 21 21 20 20 21 21 21 21 22 23 23 24 24 24 25 25 25 25 25
19 18 18 18 18 18 18 17 17 18 18 18 17 17 17 17 17 18 18 18 19 19 20 21 21 21 20 20 21 22 22 22 22 22 23 23 23 23 23 24 25 26 26
18 18 18 18 18 18 19 18 18 18 19 19 19 18 18 18 19 19 19 20 20 21 21 21 21 21 20 21 22 22 22 22 22 23 23 23 22 22 22 23 24 25 25
19 19 18 19 19 19 20 20 20 20 20 20 20 20 20 20 20 21 21 21 22 22 22 22 21 20 21 22 22 21 21 21 21 22 22 23 23 23 23 23 23 23 23
21 20 20 20 21 21 21 21 21 21 21 21 21 22 21 21 21 22 22 22 23 22 22 21 20 20 21 21 21 20 20 20 20 21 22 22 22 22 22 23 23 23 22
22 22 22 22 22 22 22 22 22 21 21 21 21 21 22 23 23 22 23 23 23 22 21 21 21 20 20 20 20 20 20 20 21 21 21 21 21 22 22 22 23 23 23
23 23 23 23 22 22 22 22 22 22 21 21 21 22 22 23 23 23 24 24 23 22 21 20 20 20 19 19 19 19 20 20 20 20 21 21 21 22 22 22 23 24 24
23 24 24 24 23 24 24 24 23 22 21 21 21 22 22 23 22 22 22 22 22 22 22 21 20 20 19 19 19 18 18 19 19 20 20 20 20 20 21 22 23 23 22
24 24 25 25 24 24 24 24 23 21 21 21 21 21 22 22 21 21 21 21 21 21 21 20 20 19 18 18 19 19 19 19 19 19 19 19 20 20 21 22 22 22 22
24 24 24 25 25 24 24 23 22 21 21 21 21 21 21 21 20 20 20 20 20 19 19 18 18 18 18 18 19 19 19 19 19 19 19 19 20 20 21 21 21 21 22
23 24 25 25 24 23 23 22 22 22 22 22 21 21 20 20 20 20 20 20 19 19 19 18 18 18 18 19 19 19 19 19 19 19 20 20 20 20 20 20 20 20 20
24 24 25 25 23 23 21 21 21 21 21 21 21 21 21 21 20 20 19 19 19 19 19 19 19 18 18 18 18 19 19 19 20 20 20 20 20 20 20 20 20 20 19
23 24 24 24 23 22 22 22 22 21 21 20 21 21 20 20 19 19 19 18 19 19 19 19 19 19 19 18 18 19 19 20 20 20 20 20 21 20 20 20 20 19 19
23 23 23 22 22 22 22 23 23 22 21 20 20 19 19 19 19 18 18 19 19 19 18 18 17 17 18 18 18 18 19 19 20 20 20 21 21 21 20 20 20 20 20
23 23 22 22 22 22 22 22 22 21 20 19 19 19 19 19 19 19 19 19 19 18 17 16 17 17 17 17 18 18 19 19 19 20 20 20 20 19 19 20 20 20 19
21 21 20 21 22 22 22 22 21 21 20 19 19 19 19 19 19 19 19 19 19 18 17 17 17 17 18 18 19 19 19 19 19 20 20 20 20 19 19 19 19 19 19
22 22 21 22 22 22 21 21 21 20 21 20 19 19 19 19 18 18 19 19 19 18 18 18 18 18 19 19 19 19 19 20 20 20 20 19 19 19 20 20 20 19 19
22 22 22 22 22 22 22 21 20 20 20 20 19 19 19 19 19 19 19 20 19 19 19 19 19 19 19 19 19 18 19 19 19 19 19 19 20 20 20 20 20 19 19

GEFSGL_500_meanwind_246.txt.gz
Wind_Speed
17 17 17 17 18 18 19 18 17 17 17 17 17 16 16 16 17 17 17 17 17 17 17 17 17 17 17 17 18 18 18 19 19 20 20 21 21 22 23 24 24 24 24
17 17 17 17 18 18 19 19 18 17 17 17 16 16 17 17 17 17 17 17 17 17 16 17 18 18 17 17 18 18 19 19 20 20 20 21 21 22 22 23 24 24 24
16 17 17 17 18 19 19 19 18 18 17 16 16 17 17 17 17 18 18 17 17 17 17 17 17 18 18 19 19 19 20 20 20 20 20 21 22 23 23 23 24 24 24
17 17 17 17 18 18 19 19 19 18 17 17 18 18 18 18 18 18 18 18 18 18 18 19 19 19 20 20 20 20 21 21 21 21 21 22 23 24 24 24 24 25 25
17 17 17 17 18 18 19 19 18 18 18 18 18 19 18 18 18 18 18 18 19 19 19 19 20 20 21 21 21 21 22 22 22 22 22 22 22 23 24 24 25 25 25
18 18 18 18 19 19 19 19 18 18 18 18 18 18 19 19 18 18 18 18 18 19 19 20 20 20 20 22 22 22 22 22 22 22 22 22 23 23 24 24 24 25 25
18 18 18 19 19 20 20 19 19 19 19 19 19 19 18 18 18 18 18 18 19 19 19 20 20 19 21 21 22 22 21 21 21 21 22 22 23 23 24 24 24 25 25
18 18 18 19 19 19 19 19 19 20 21 20 20 19 19 19 19 19 18 18 18 18 19 19 20 20 21 22 22 21 21 21 21 21 22 22 23 23 23 23 24 24 25
20 19 19 19 19 19 19 20 20 20 20 20 19 19 19 19 19 19 18 18 18 19 19 20 20 21 22 22 22 22 22 22 22 21 22 22 23 23 23 23 23 23 23
21 21 21 20 20 20 20 20 20 20 20 20 20 20 20 19 19 19 19 19 19 19 20 20 20 21 22 22 22 22 22 23 23 22 23 23 23 23 23 22 23 23 23
21 22 23 22 21 21 21 21 21 21 21 21 20 20 20 19 19 19 19 19 19 20 20 20 21 22 22 23 23 23 23 24 23 23 23 23 23 23 23 22 22 23 23
21 22 22 21 21 21 21 21 21 22 21 20 20 20 20 20 20 21 21 20 20 21 21 21 21 22 23 23 23 23 23 23 23 23 23 22 22 22 21 22 22 22 22
21 21 21 21 21 21 21 21 21 21 21 20 20 20 21 21 21 21 21 21 21 21 21 21 22 23 23 23 23 23 23 23 23 23 22 22 21 20 20 20 21 22 22
23 23 22 21 21 21 21 21 22 21 21 20 20 21 21 22 22 21 22 22 23 22 22 22 22 23 23 23 23 23 23 23 22 22 21 21 21 21 21 21 22 22 22
23 23 23 22 22 22 21 22 22 21 21 21 21 21 21 22 21 21 21 22 22 22 22 22 22 22 23 23 22 22 23 22 22 22 22 22 22 22 23 23 23 23 22
22 22 22 22 22 22 23 23 22 21 21 21 21 21 21 21 21 21 21 21 22 21 21 21 21 21 22 22 22 22 22 22 22 23 23 23 23 23 23 23 23 23 23
22 22 23 23 22 23 23 23 23 22 22 22 22 22 21 21 21 21 21 21 21 21 20 20 21 22 23 22 22 22 22 22 22 22 23 23 23 23 23 23 23 24 24
23 23 23 23 23 23 23 23 24 23 23 22 22 22 21 21 21 20 20 21 21 21 21 21 22 22 23 22 22 22 22 22 22 22 22 22 22 23 23 23 23 23 23
22 22 23 23 23 23 23 23 23 23 23 23 22 22 22 22 21 21 20 20 20 21 21 22 22 22 22 22 22 23 24 23 23 23 23 23 23 23 23 23 22 22 22
22 22 22 22 23 23 24 24 24 23 23 23 22 22 21 21 20 20 20 20 20 21 21 22 22 22 22 22 22 23 23 23 22 23 23 23 22 22 22 22 22 22 23
22 22 22 22 23 24 24 24 24 23 23 23 22 21 21 21 21 20 20 20 20 21 22 22 22 22 21 22 23 23 22 22 22 22 22 22 22 23 23 23 23 23 24
23 23 23 23 23 23 24 25 25 24 23 22 22 22 22 22 21 21 21 20 21 22 23 23 23 22 22 22 22 22 21 22 22 23 23 22 22 23 23 23 23 24 23
24 24 24 24 24 23 23 23 23 23 23 24 23 22 22 22 21 21 21 21 21 22 23 23 22 22 22 22 22 22 22 22 22 22 22 22 22 22 23 23 23 22 22
24 24 25 24 24 24 23 23 23 23 23 23 22 23 22 22 22 22 22 22 22 22 23 23 22 22 22 22 22 21 21 21 22 22 22 21 21 22 22 22 22 21 21
25 25 25 24 23 22 22 22 22 22 22 22 22 22 22 22 22 22 23 23 23 23 23 23 22 21 21 22 21 21 21 21 21 21 21 21 22 22 22 22 22 21 20
25 25 24 23 22 22 22 22 23 22 21 21 21 21 22 22 22 22 23 24 24 23 23 23 22 21 21 21 21 21 21 21 21 21 21 22 22 23 22 23 22 21 20

GEFSGL_500_meanwind_252.txt.gz
Wind_Speed
16 16 16 16 15 15 15 15 16 16 16 16 15 16 16 16 15 15 14 14 15 15 15 15 15 16 16 17 18 18 18 17 17 17 18 19 20 21 22 22 23 23 24
16 15 14 15 15 15 16 16 16 16 16 16 16 16 17 16 15 15 14 14 15 15 15 16 16 16 16 17 17 18 18 17 17 17 17 18 20 21 21 21 22 24 25
15 15 14 15 15 16 16 16 17 17 17 17 17 17 17 16 16 15 15 15 16 16 16 16 17 17 17 17 17 17 17 18 17 17 18 18 19 20 21 22 22 24 25
15 15 15 15 16 16 16 17 17 17 17 17 17 18 18 18 18 17 17 17 17 17 17 17 18 18 18 19 18 18 18 18 18 19 19 19 20 20 21 21 22 23 24
15 15 15 15 15 16 17 17 17 17 17 18 18 18 18 18 19 19 19 19 19 19 18 19 19 19 19 19 19 19 19 19 19 20 20 20 20 21 22 22 23 23 24
15 15 15 15 16 17 17 17 18 18 18 19 19 19 19 19 19 20 20 19 20 20 20 20 20 20 19 20 20 20 20 20 21 21 21 22 22 22 23 23 23 23 23
15 16 16 16 17 18 18 18 19 19 20 20 20 20 20 20 20 20 20 20 21 21 21 21 20 20 20 20 20 21 21 22 23 22 23 22 22 22 23 23 23 23 24
16 16 16 16 17 18 18 19 20 20 21 21 21 21 21 21 21 21 20 20 20 20 20 20 20 20 21 20 21 22 22 22 23 23 22 23 23 23 22 23 23 23 24
18 16 16 17 18 18 18 19 20 20 20 20 21 21 21 21 21 21 21 20 20 19 19 19 20 20 20 20 21 21 22 22 22 22 23 23 23 23 23 23 22 23 23
17 17 18 19 19 19 19 19 20 20 20 20 20 21 22 21 21 21 20 20 19 19 19 19 19 19 19 20 21 21 22 22 22 22 22 23 22 23 23 23 23 23 23
19 20 19 19 19 19 19 20 20 20 20 20 20 21 20 20 20 19 19 19 19 20 20 20 19 19 19 20 20 21 21 21 21 22 22 23 22 22 23 23 22 23 23
19 19 19 20 19 19 19 20 21 21 21 21 20 19 19 19 19 19 19 19 19 19 19 19 19 19 19 20 20 20 21 21 21 21 22 22 21 21 21 21 21 21 21
20 20 20 20 20 20 20 21 21 21 21 21 20 20 19 20 20 20 19 18 18 18 18 18 19 19 19 19 20 20 21 21 21 21 21 21 21 20 21 21 21 21 22
20 20 20 20 21 21 21 21 21 21 21 21 21 21 21 21 20 20 20 19 19 19 19 19 20 20 20 20 20 20 21 21 21 22 22 22 21 21 21 21 21 22 22
20 21 21 21 21 21 20 21 21 21 21 21 21 21 20 20 20 20 20 20 20 20 19 19 20 20 20 19 19 20 20 21 21 22 22 22 22 22 22 22 22 22 22
22 21 20 20 21 21 21 21 20 21 22 22 22 21 21 21 21 21 21 21 21 20 20 20 20 20 20 20 20 20 20 21 21 22 22 22 22 22 23 23 23 23 24
21 20 20 20 20 21 21 21 20 21 22 22 22 22 22 22 22 22 22 22 22 21 21 20 20 21 21 21 21 21 21 22 22 22 22 22 23 23 23 24 24 25 25
20 21 21 21 21 21 21 21 21 21 22 22 22 22 23 23 22 21 21 21 21 21 21 21 21 21 22 22 22 23 23 23 23 23 23 23 23 23 24 25 25 26 26
21 21 21 21 21 21 21 21 21 21 21 21 21 21 21 20 20 20 19 19 19 19 20 21 22 22 23 24 24 24 24 24 24 24 24 24 24 24 24 25 26 26 26
21 21 21 22 22 22 21 21 21 21 20 20 20 19 19 18 18 18 18 18 18 18 19 20 21 22 23 24 25 25 25 25 25 24 24 24 24 24 25 25 25 25 25
22 22 23 23 23 23 23 22 22 22 21 20 20 19 19 18 18 18 18 19 19 19 19 20 21 23 24 24 24 24 24 24 24 23 23 24 24 25 25 25 25 25 24
22 23 23 23 23 24 23 23 23 22 21 21 20 19 20 20 20 19 19 20 20 20 21 21 22 23 23 23 23 23 23 23 23 23 23 23 23 23 24 24 24 23 23
23 23 23 24 24 24 24 23 23 23 22 22 21 21 21 21 21 21 21 22 22 23 23 24 24 24 23 22 22 23 23 23 23 23 23 23 23 23 23 23 22 22 22
23 23 24 24 24 24 23 23 22 22 23 23 23 23 22 22 22 22 23 23 24 24 25 25 25 24 23 23 22 22 23 23 23 23 23 23 23 23 22 22 22 21 22
24 24 24 23 23 23 23 23 23 23 23 23 23 23 23 23 24 24 24 25 25 25 25 25 25 24 23 22 22 22 22 22 23 23 23 23 23 22 22 22 22 22 22
24 24 24 23 22 22 22 22 23 23 23 22 23 23 24 24 25 25 25 25 25 24 25 25 25 23 23 22 22 22 22 22 22 22 23 22 21 21 22 22 22 22 22

GEFSGL_500_meanwind_258.txt.gz
Wind_Speed
17 16 15 15 15 14 15 15 16 16 16 17 17 17 17 17 17 17 17 17 17 17 17 18 18 18 18 19 19 19 19 20 21 21 21 22 23 24 25 25 25 25 26
17 17 16 16 15 15 15 16 16 16 16 17 17 17 17 18 18 17 18 18 17 18 18 19 19 20 19 20 20 20 20 20 20 21 22 23 23 24 24 25 25 25 25
16 16 17 17 16 16 16 16 17 17 17 17 18 18 18 18 18 18 19 18 18 19 19 20 20 20 20 21 20 20 21 21 21 21 22 22 22 23 24 24 24 24 24
17 17 17 17 16 15 16 16 16 17 18 18 19 19 18 18 18 18 19 19 19 20 20 20 20 20 21 21 21 21 21 21 21 21 21 22 22 22 23 24 24 24 24
17 17 17 17 16 16 16 17 18 18 19 19 18 19 19 19 19 19 19 20 20 20 20 21 21 21 21 21 22 21 21 21 21 21 21 21 22 22 23 23 24 24 25
18 17 18 18 18 18 18 18 18 19 18 18 19 19 19 20 20 20 20 20 21 21 21 21 22 21 21 21 21 21 21 21 21 21 21 22 23 24 24 25 25 25 25
19 19 18 19 19 19 18 18 18 19 18 18 19 19 19 20 20 20 21 21 21 21 21 21 22 22 23 22 22 22 22 23 23 23 22 23 24 24 25 25 25 26 26
19 19 19 20 20 20 20 19 19 19 19 19 19 20 20 21 20 20 20 20 20 21 21 22 22 23 23 22 22 23 23 24 23 23 23 24 25 25 25 26 26 25 26
18 18 18 19 19 20 20 20 20 20 20 20 20 21 21 21 21 21 21 21 21 21 21 22 22 22 22 22 22 23 23 23 23 23 24 24 25 25 26 26 26 26 25
19 19 19 19 19 20 20 21 20 20 20 21 21 20 20 20 20 21 21 22 22 21 21 22 22 22 23 23 22 22 23 23 24 24 24 24 25 26 26 26 26 26 26
20 20 19 19 19 20 21 21 21 22 21 21 21 20 20 20 21 22 22 22 22 21 21 21 21 21 22 23 22 22 23 23 23 24 24 25 25 25 26 26 26 26 26
20 20 20 20 20 20 21 21 22 23 22 22 21 20 20 21 21 22 22 21 21 21 20 20 21 21 21 22 23 23 23 24 24 24 24 24 25 25 25 25 26 25 25
20 21 21 21 21 21 22 21 21 21 21 21 21 21 21 22 23 22 22 22 22 21 21 20 20 21 22 22 22 22 23 23 24 24 24 25 25 25 26 26 25 24 23
21 21 21 21 21 21 22 23 22 22 23 22 23 23 23 24 24 24 23 23 22 22 22 21 21 21 22 22 22 23 23 23 23 23 23 24 24 24 24 24 24 23 22
19 20 21 21 21 22 21 22 24 24 23 23 24 24 24 24 24 25 24 23 23 23 23 23 22 22 22 22 23 23 23 23 23 23 23 23 24 24 23 23 23 23 23
19 20 20 21 21 21 22 23 24 24 23 23 24 24 25 25 25 25 24 24 23 23 23 23 23 23 22 23 23 22 22 22 22 22 23 23 22 23 24 24 24 24 25
20 21 21 21 22 22 22 23 24 24 24 25 26 26 26 25 25 24 24 25 24 23 23 23 23 23 24 23 23 23 23 23 23 23 22 22 23 23 24 24 24 24 24
21 21 21 22 22 23 23 23 23 24 25 26 25 25 24 24 24 24 24 24 23 23 23 23 23 23 24 23 24 25 25 24 24 23 23 23 24 24 24 24 24 25 26
21 21 21 22 22 22 23 23 23 24 24 24 24 24 24 23 23 22 23 23 22 23 24 24 24 24 25 25 26 26 26 25 25 24 24 25 25 25 24 24 25 26 27
21 21 22 22 22 22 23 23 23 23 23 23 23 23 22 22 21 21 22 22 23 23 24 25 25 25 26 26 27 27 26 26 26 26 26 26 26 25 25 25 25 26 26
21 21 21 21 22 22 23 23 23 23 24 23 22 22 21 21 21 21 22 22 23 24 24 25 25 25 25 25 26 25 25 25 26 26 25 25 25 25 25 25 26 26 25
22 22 22 22 21 21 22 22 23 23 23 22 22 22 22 22 21 22 23 23 23 23 23 24 23 23 23 24 24 24 25 25 25 26 26 25 25 25 25 25 25 24 25
22 22 22 22 21 22 23 23 23 23 23 23 22 22 22 22 22 23 23 24 23 23 23 23 23 23 24 24 25 24 25 25 26 26 25 25 25 25 25 25 25 24 25
23 23 23 23 23 23 23 22 22 22 23 23 23 22 22 22 22 23 24 24 24 24 23 23 23 24 24 24 24 24 24 25 25 25 24 24 24 24 24 25 25 25 26
24 24 24 23 23 23 22 22 22 22 23 24 24 23 23 23 23 23 24 24 24 24 24 24 24 24 23 23 24 24 23 23 23 23 23 23 23 24 24 25 25 26 26
24 24 24 23 22 22 22 22 22 23 23 23 23 23 23 24 24 24 24 24 24 24 24 24 24 24 24 23 23 23 22 22 23 23 23 24 24 24 25 25 25 26 26

GEFSGL_500_meanwind_264.txt.gz
Wind_Speed
20 21 21 21 21 21 20 19 18 18 17 18 17 17 17 17 17 18 18 19 19 19 19 19 19 18 18 18 19 19 20 20 20 21 21 20 20 21 22 22 23 24 25
22 21 21 21 21 21 20 19 19 18 18 18 18 18 18 18 18 18 18 19 18 18 18 18 18 18 19 19 19 20 20 19 19 20 20 20 20 21 22 22 22 23 24
22 21 20 19 20 20 20 20 19 19 19 19 19 19 19 19 19 18 19 18 18 19 20 19 19 19 19 19 19 19 19 19 20 20 20 20 21 21 21 22 22 23 23
21 22 21 20 19 19 19 20 20 20 20 20 19 19 19 20 20 20 19 19 20 20 20 20 20 19 19 19 20 20 20 20 20 20 21 21 22 22 22 22 23 23 23
20 20 20 19 19 19 20 19 19 20 20 20 20 19 19 19 19 19 20 20 20 20 20 20 20 20 20 20 20 20 21 21 21 22 22 22 23 23 23 23 24 24 24
20 20 20 20 20 20 20 20 20 20 20 20 19 19 19 19 19 19 19 19 19 19 20 20 20 20 20 20 20 21 21 21 22 23 23 24 24 24 25 25 24 24 24
20 20 20 21 20 20 20 19 19 20 20 20 19 20 20 20 20 19 19 18 18 19 19 20 20 20 21 21 21 22 22 22 23 24 24 25 25 25 25 25 25 25 25
20 20 20 21 21 21 21 20 20 20 20 20 20 21 21 21 21 20 19 19 19 20 20 20 20 20 21 22 22 22 22 22 23 24 24 24 24 24 25 25 26 26 26
21 20 20 20 21 21 20 20 20 21 21 21 21 21 21 21 21 21 20 20 20 20 20 20 21 21 22 22 22 22 22 22 23 24 24 24 24 25 25 26 26 26 26
21 21 21 20 20 20 20 21 20 21 21 21 21 21 21 21 21 22 21 20 20 20 21 21 21 21 22 23 23 23 23 23 24 24 25 25 25 25 26 26 26 26 25
21 21 21 20 19 19 20 20 21 21 21 21 21 21 22 22 22 22 22 21 21 22 22 22 22 22 21 22 23 23 24 24 24 25 25 25 25 25 26 26 25 25 25
19 19 19 19 19 19 19 20 20 20 20 20 21 22 22 23 23 23 23 23 22 23 23 23 23 22 22 22 23 24 24 24 24 25 25 26 25 25 25 25 25 24 25
17 17 18 18 18 19 20 20 21 21 21 21 21 22 22 23 23 23 24 24 24 24 24 24 24 24 24 24 24 25 25 25 25 25 25 25 25 25 25 24 25 25 25
18 18 18 18 18 19 20 21 21 22 22 22 22 22 23 24 24 24 25 25 24 25 25 25 25 25 24 24 24 24 25 25 25 25 25 25 25 24 24 24 24 24 25
20 19 19 19 19 19 20 21 22 22 22 22 22 22 23 24 24 25 26 26 25 25 26 26 26 26 25 24 24 24 24 25 25 25 25 25 24 24 23 24 24 24 25
20 19 19 19 20 20 20 20 21 22 22 22 23 23 24 25 25 26 27 27 27 26 26 26 26 25 25 24 24 24 25 26 26 27 26 26 26 25 25 25 25 25 24
19 19 19 20 20 20 20 21 21 21 22 22 23 24 25 25 25 25 25 26 26 26 25 26 26 26 25 25 25 26 26 26 26 26 26 26 26 26 25 25 25 25 24
19 20 21 21 21 21 21 22 22 22 22 23 23 24 24 25 25 25 25 24 24 25 25 26 26 25 25 26 26 26 26 26 26 26 26 26 26 26 26 26 26 26 25
19 20 21 22 22 22 21 22 22 22 23 23 23 23 23 23 23 23 24 24 24 24 23 24 25 25 25 25 26 27 26 27 27 26 26 27 27 27 27 27 26 26 26
19 21 21 22 22 22 21 21 22 22 23 23 23 22 22 22 22 23 23 24 24 23 23 24 24 24 25 25 25 26 26 27 27 27 27 27 27 27 27 26 26 26 26
19 20 20 21 22 22 22 22 22 22 23 22 22 22 22 22 22 22 23 24 24 24 24 24 25 25 25 25 25 25 25 26 26 27 27 27 26 26 25 25 25 25 25
20 21 21 21 22 22 22 22 22 22 22 21 21 21 22 22 22 22 23 23 24 24 24 24 24 24 24 25 26 26 26 26 26 26 26 25 25 24 24 24 24 23 24
22 22 23 23 23 23 23 22 22 22 22 22 22 22 22 22 23 23 24 24 24 24 24 24 24 24 25 25 26 26 26 26 25 25 24 24 23 24 24 24 24 24 24
23 23 23 24 24 24 23 22 22 22 22 22 22 23 23 23 23 23 23 23 22 22 22 22 22 23 24 24 25 25 25 26 25 25 24 24 24 24 24 24 24 24 24
25 25 24 25 24 24 23 23 22 22 22 22 22 22 23 23 23 23 23 22 22 22 22 22 22 23 23 24 25 25 25 25 25 24 24 24 24 24 24 24 24 24 25
26 26 25 25 24 23 23 23 22 22 22 22 22 22 23 23 23 23 22 22 22 22 22 22 22 23 24 24 24 24 24 24 24 23 23 23 23 23 24 24 24 24 24